EN

Hourly Weather Dzvinkove

Today, 20 October, Tuesday

Time Temperature Precipitation Wind Pressure Humidity
00:00 +4°C° 0 mm 3 mps 755 mmHg 84%
01:00 +4°C° 0 mm 3 mps 755 mmHg 86%
02:00 +3°C° 0 mm 3 mps 755 mmHg 90%
03:00 +3°C° 0 mm 3 mps 755 mmHg 90%
04:00 +3°C° 0 mm 3 mps 755 mmHg 90%
05:00 +3°C° 0 mm 3 mps 755 mmHg 91%
06:00 +3°C° 0 mm 4 mps 755 mmHg 88%
07:00 +4°C° 0 mm 4 mps 756 mmHg 84%
08:00 +3°C° 0 mm 5 mps 756 mmHg 80%
09:00 +6°C° 0 mm 5 mps 756 mmHg 74%
10:00 +7°C° 0 mm 5 mps 756 mmHg 67%
11:00 +9°C° 0 mm 6 mps 756 mmHg 60%
12:00 +9°C° 0 mm 6 mps 756 mmHg 59%
13:00 +9°C° 0 mm 6 mps 757 mmHg 57%
14:00 +10°C° 0 mm 6 mps 757 mmHg 56%
15:00 +10°C° 0 mm 4 mps 757 mmHg 61%
16:00 +9°C° 0 mm 3 mps 757 mmHg 66%
17:00 +8°C° 0 mm 2 mps 756 mmHg 71%
18:00 +7°C° 0 mm 2 mps 757 mmHg 73%
19:00 +7°C° 0 mm 2 mps 757 mmHg 75%
20:00 +7°C° 0 mm 2 mps 757 mmHg 77%
21:00 +6°C° 0 mm 2 mps 757 mmHg 79%
22:00 +7°C° 0 mm 1 mps 757 mmHg 80%
23:00 +7°C° 0 mm 1 mps 757 mmHg 81%

Tomorrow, 21 October, Wednesday

Time Temperature Precipitation Wind Pressure Humidity
00:00 +7°C° 0 mm 1 mps 757 mmHg 82%
01:00 +6°C° 0 mm 2 mps 757 mmHg 82%
02:00 +6°C° 0 mm 2 mps 757 mmHg 83%
03:00 +6°C° 0 mm 2 mps 757 mmHg 82%
04:00 +6°C° 0 mm 2 mps 756 mmHg 82%
05:00 +5°C° 0 mm 3 mps 756 mmHg 81%
06:00 +7°C° 0 mm 3 mps 756 mmHg 77%
07:00 +7°C° 0 mm 3 mps 755 mmHg 73%
08:00 +7°C° 0 mm 4 mps 755 mmHg 69%
09:00 +8°C° 0 mm 5 mps 755 mmHg 65%
10:00 +9°C° 0 mm 5 mps 754 mmHg 62%
11:00 +10°C° 0 mm 6 mps 754 mmHg 58%
12:00 +10°C° 0 mm 6 mps 754 mmHg 58%
13:00 +10°C° 0 mm 5 mps 753 mmHg 58%
14:00 +12°C° 0 mm 5 mps 753 mmHg 59%
15:00 +10°C° 0 mm 5 mps 752 mmHg 62%
16:00 +11°C° 0 mm 4 mps 752 mmHg 65%
17:00 +10°C° 0 mm 3 mps 751 mmHg 68%
18:00 +10°C° 0 mm 3 mps 751 mmHg 69%
19:00 +9°C° 0 mm 3 mps 752 mmHg 70%
20:00 +9°C° 0 mm 3 mps 752 mmHg 72%
21:00 +9°C° 0 mm 3 mps 752 mmHg 72%
22:00 +9°C° 0 mm 3 mps 752 mmHg 72%
23:00 +9°C° 0 mm 3 mps 752 mmHg 72%

Day after tomorrow, 22 October, Thursday

Time Temperature Precipitation Wind Pressure Humidity
00:00 +8°C° 0 mm 3 mps 752 mmHg 72%
01:00 +8°C° 0 mm 3 mps 752 mmHg 71%
02:00 +8°C° 0 mm 3 mps 752 mmHg 70%
03:00 +8°C° 0 mm 2 mps 752 mmHg 70%
04:00 +8°C° 0 mm 2 mps 752 mmHg 70%
05:00 +7°C° 0 mm 2 mps 752 mmHg 70%
06:00 +8°C° 0 mm 3 mps 752 mmHg 68%
07:00 +8°C° 0 mm 3 mps 752 mmHg 66%
08:00 +9°C° 0 mm 3 mps 752 mmHg 64%
09:00 +10°C° 0 mm 4 mps 752 mmHg 60%
10:00 +12°C° 0 mm 4 mps 752 mmHg 57%
11:00 +14°C° 0 mm 4 mps 752 mmHg 53%
12:00 +15°C° 0 mm 5 mps 752 mmHg 52%
13:00 +16°C° 0 mm 5 mps 751 mmHg 51%
14:00 +17°C° 0 mm 5 mps 751 mmHg 49%
15:00 +15°C° 0 mm 5 mps 751 mmHg 54%
16:00 +14°C° 0 mm 4 mps 751 mmHg 59%
17:00 +13°C° 0 mm 3 mps 751 mmHg 64%
18:00 +13°C° 0 mm 3 mps 751 mmHg 68%
19:00 +12°C° 0 mm 3 mps 751 mmHg 71%
20:00 +12°C° 0 mm 3 mps 751 mmHg 75%
21:00 +11°C° 0 mm 3 mps 751 mmHg 76%
22:00 +11°C° 0 mm 3 mps 752 mmHg 78%
23:00 +11°C° 0 mm 3 mps 752 mmHg 79%

23 October, Friday

Time Temperature Precipitation Wind Pressure Humidity
00:00 +12°C° 0 mm 2 mps 752 mmHg 79%
01:00 +12°C° 0 mm 2 mps 751 mmHg 79%
02:00 +12°C° 0 mm 2 mps 751 mmHg 79%
03:00 +12°C° 0 mm 2 mps 751 mmHg 79%
04:00 +12°C° 0 mm 2 mps 751 mmHg 79%
05:00 +10°C° 0 mm 2 mps 751 mmHg 79%
06:00 +12°C° 0 mm 2 mps 750 mmHg 78%
07:00 +12°C° 0 mm 2 mps 750 mmHg 77%
08:00 +12°C° 0 mm 2 mps 750 mmHg 75%
09:00 +14°C° 0 mm 2 mps 750 mmHg 68%
10:00 +16°C° 0 mm 2 mps 750 mmHg 61%
11:00 +17°C° 0 mm 2 mps 750 mmHg 54%
12:00 +18°C° 0 mm 2 mps 749 mmHg 52%
13:00 +18°C° 0 mm 2 mps 749 mmHg 50%
14:00 +19°C° 0 mm 2 mps 748 mmHg 48%
15:00 +17°C° 0 mm 2 mps 748 mmHg 52%
16:00 +16°C° 0 mm 2 mps 748 mmHg 56%
17:00 +15°C° 0 mm 2 mps 747 mmHg 61%
18:00 +14°C° 0 mm 2 mps 747 mmHg 62%
19:00 +14°C° 0 mm 2 mps 747 mmHg 64%
20:00 +12°C° 0 mm 3 mps 747 mmHg 66%
21:00 +12°C° 0 mm 3 mps 747 mmHg 69%
22:00 +12°C° 0 mm 3 mps 747 mmHg 73%
23:00 +11°C° 0 mm 3 mps 747 mmHg 77%

24 October, Saturday

Time Temperature Precipitation Wind Pressure Humidity
00:00 +12°C° 0 mm 2 mps 747 mmHg 80%
01:00 +12°C° 0 mm 2 mps 747 mmHg 82%
02:00 +12°C° 0 mm 2 mps 747 mmHg 85%
03:00 +12°C° 0 mm 2 mps 747 mmHg 86%
04:00 +12°C° 0 mm 2 mps 747 mmHg 87%
05:00 +10°C° 0 mm 2 mps 747 mmHg 89%
06:00 +12°C° 0.1 mm 2 mps 747 mmHg 89%
07:00 +12°C° 0.1 mm 1 mps 747 mmHg 89%
08:00 +12°C° 0.1 mm 1 mps 747 mmHg 90%
09:00 +12°C° 0.3 mm 1 mps 747 mmHg 90%
10:00 +12°C° 0.3 mm 1 mps 747 mmHg 90%
11:00 +13°C° 0.3 mm 1 mps 747 mmHg 90%
12:00 +13°C° 0.6 mm 1 mps 747 mmHg 91%
13:00 +11°C° 0.6 mm 0 mps 747 mmHg 93%
14:00 +11°C° 0.6 mm 0 mps 746 mmHg 94%
15:00 +11°C° 0.6 mm 0 mps 746 mmHg 95%
16:00 +12°C° 0.6 mm 1 mps 746 mmHg 96%
17:00 +12°C° 0.6 mm 1 mps 745 mmHg 96%
18:00 +12°C° 1 mm 2 mps 745 mmHg 95%
19:00 +11°C° 1 mm 4 mps 745 mmHg 94%
20:00 +12°C° 1 mm 5 mps 745 mmHg 93%
21:00 +10°C° 0.4 mm 5 mps 744 mmHg 89%
22:00 +10°C° 0.4 mm 6 mps 744 mmHg 86%
23:00 +10°C° 0.4 mm 7 mps 744 mmHg 82%

25 October, Sunday

Time Temperature Precipitation Wind Pressure Humidity
00:00 +9°C° 0.2 mm 7 mps 744 mmHg 83%
01:00 +9°C° 0.2 mm 7 mps 744 mmHg 84%
02:00 +9°C° 0.2 mm 8 mps 744 mmHg 85%
03:00 +9°C° 0.1 mm 8 mps 744 mmHg 84%
04:00 +9°C° 0.1 mm 8 mps 745 mmHg 82%
05:00 +7°C° 0.1 mm 9 mps 745 mmHg 81%
06:00 +7°C° 0 mm 9 mps 745 mmHg 80%
07:00 +7°C° 0 mm 8 mps 746 mmHg 78%
08:00 +7°C° 0 mm 8 mps 746 mmHg 77%
09:00 +7°C° 0 mm 8 mps 747 mmHg 76%
10:00 +7°C° 0 mm 8 mps 748 mmHg 75%
11:00 +8°C° 0 mm 7 mps 749 mmHg 74%
12:00 +8°C° 0 mm 7 mps 749 mmHg 73%
13:00 +8°C° 0 mm 7 mps 749 mmHg 73%
14:00 +8°C° 0 mm 7 mps 750 mmHg 72%
15:00 +8°C° 0 mm 6 mps 750 mmHg 73%
16:00 +8°C° 0 mm 5 mps 750 mmHg 75%
17:00 +8°C° 0 mm 5 mps 750 mmHg 76%
18:00 +7°C° 0 mm 4 mps 751 mmHg 79%
19:00 +7°C° 0 mm 4 mps 751 mmHg 82%
20:00 +6°C° 0 mm 4 mps 751 mmHg 85%
21:00 +7°C° 0 mm 3 mps 752 mmHg 86%
22:00 +7°C° 0 mm 3 mps 752 mmHg 87%
23:00 +7°C° 0 mm 3 mps 752 mmHg 88%

26 October, Monday

Time Temperature Precipitation Wind Pressure Humidity
00:00 +5°C° 0 mm 3 mps 752 mmHg 89%
01:00 +6°C° 0 mm 2 mps 752 mmHg 89%
02:00 +6°C° 0 mm 2 mps 753 mmHg 90%
03:00 +5°C° 0 mm 2 mps 753 mmHg 90%
04:00 +5°C° 0 mm 2 mps 753 mmHg 90%
05:00 +5°C° 0 mm 2 mps 753 mmHg 91%
06:00 +5°C° 0 mm 2 mps 753 mmHg 90%
07:00 +5°C° 0 mm 2 mps 753 mmHg 90%
08:00 +7°C° 0 mm 1 mps 754 mmHg 90%
09:00 +8°C° 0 mm 1 mps 754 mmHg 83%
10:00 +9°C° 0 mm 1 mps 754 mmHg 75%
11:00 +11°C° 0 mm 1 mps 754 mmHg 68%
12:00 +11°C° 0 mm 1 mps 754 mmHg 64%
13:00 +12°C° 0 mm 1 mps 754 mmHg 61%
14:00 +12°C° 0 mm 1 mps 754 mmHg 57%
15:00 +11°C° 0 mm 1 mps 754 mmHg 62%
16:00 +10°C° 0 mm 1 mps 754 mmHg 67%
17:00 +9°C° 0 mm 1 mps 753 mmHg 72%
18:00 +7°C° 0 mm 2 mps 754 mmHg 75%
19:00 +7°C° 0 mm 2 mps 754 mmHg 77%
20:00 +6°C° 0 mm 2 mps 754 mmHg 80%
21:00 +6°C° 0 mm 2 mps 754 mmHg 82%
22:00 +6°C° 0 mm 2 mps 754 mmHg 83%
23:00 +5°C° 0 mm 2 mps 754 mmHg 85%
Show more